Miscellaneous Local Product
Issued by NWS North Platte, NE

Home | Current Version | Previous Version | Text Only | Print | Product List | Glossary On
Versions: 1 2 3 4 5 6 7 8 9 10 11 12 13 14 15 16 17 18 19 20 21 22 23 24 25 26 27 28 29 30 31 32 33 34 35 36 37 38 39 40 41 42 43 44 45 46 47 48 49 50
414
AXUS43 KLBF 012010
MISLBF


WESTERN AND NORTH CENTRAL NEBRASKA HOURLY WEATHER ROUNDUP
NATIONAL WEATHER SERVICE NORTH PLATTE NE
300 PM CDT SUN MAY 01 2016

NOTE: "FAIR" INDICATES FEW OR NO CLOUDS BELOW 12,000 FEET WITH NO
SIGNIFICANT WEATHER AND/OR OBSTRUCTIONS TO VISIBILITY.

NOTE: STATIONS NOT REPORTING VARIABLES SUCH AS SKY/WEATHER OR
PRESSURE ARE PROVIDED BY RAWS AND APRS NETWORKS AND ARE NOT UNDER
NATIONAL WEATHER SERVICE QUALITY CONTROL.

...OBSERVATIONS IN AND NEAR THE EASTERN PANHANDLE OF NEBRASKA...

CITY           SKY/WX    TMP DP  RH WIND       PRES   REMARKS
PINE RIDGE     MOSUNNY   55  31  39 N9        30.26F
CHADRON        MOSUNNY   55  30  38 N15       30.27F
ALLIANCE       MOSUNNY   42  32  67 NW7       30.26F
SIDNEY         SUNNY     43  30  60 N9        30.28F
CRESCENT LAKE    N/A     43  34  70 NW9         N/A
BIG SPRINGS      N/A     44  37  77 NW14        N/A
$$

...OBSERVATIONS IN NORTHERN NEBRASKA AND FAR SOUTHERN SOUTH DAKOTA...

CITY           SKY/WX    TMP DP  RH WIND       PRES   REMARKS
WINNER         FAIR      58  34  40 N20G26    30.23F
VALENTINE      MOSUNNY   55  30  38 N17G24    30.24F
THEDFORD       PTSUNNY   52  34  49 N13G23    30.23S
AINSWORTH      MOSUNNY   54  33  45 N22G30    30.22S
O`NEILL        PTSUNNY   54  39  57 N13G18    30.21S
ORD            PTSUNNY   51  40  65 N15G26    30.19S
BROKEN BOW     PTSUNNY   53  38  56 NE20      30.19F
VALENTINE NWR    N/A     51  32  48 N13G23      N/A
BUTTE            N/A     51  37  59 NE14        N/A
HALSEY           N/A     54  30  39 N10G21      N/A
CHAMBERS         N/A     55  39  54 N12         N/A
EWING            N/A     50  43  78 N10G17      N/A
$$

...OBSERVATIONS IN SOUTHWEST NEBRASKA AND FAR NORTHEAST COLORADO...

CITY           SKY/WX    TMP DP  RH WIND       PRES   REMARKS
HOLYOKE        FAIR      43  34  70 N17G23    30.26F
IMPERIAL       PTSUNNY   52  33  48 N25G33    30.22F
OGALLALA       CLOUDY    49  31  48 N17G28    30.25F
NORTH PLATTE   MOSUNNY   53  35  50 N22G28    30.21F
MCCOOK         CLOUDY    52  36  54 N21       30.18F
LEXINGTON      CLOUDY    50  38  64 NE18      30.20S
PAXTON           N/A     48  38  69 NW15        N/A
STAPLETON        N/A     51  34  52 W3G13       N/A
GOTHENBURG       N/A     52  33  48 N9          N/A
CALLAWAY         N/A     50  37  62 N12         N/A
$$

...OBSERVATIONS IN CENTRAL LINCOLN COUNTY AREA...

CITY           SKY/WX    TMP DP  RH WIND       PRES   REMARKS
N.P. AIRPORT   MOSUNNY   53  35  50 N22G28    30.21F
N.P. DOWNTOWN    N/A     50  35  57 N16G28      N/A
N.P. HILLCREST   N/A     50  35  56 N21G32      N/A
$$

...SOME OBSERVATIONS FROM AROUND THE REGION...

CITY           SKY/WX    TMP DP  RH WIND       PRES   REMARKS
DENVER         CLOUDY    38  29  70 NW8       30.29F WCI  32
LARAMIE        CLOUDY    31  22  69 VRB7      30.25F WCI  24
CHEYENNE       PTSUNNY   37  24  59 N14       30.27F WCI  28
SCOTTSBLUFF    MOSUNNY   50  28  42 N14       30.28F
RAPID CITY     SUNNY     56  31  38 NW10G17   30.27F
BISMARCK       SUNNY     63  29  27 MISG      30.25F
PIERRE         MOSUNNY   59  33  37 MISG      30.24F
SIOUX FALLS    PTSUNNY   54  38  54 NE9       30.17R
OMAHA          LGT RAIN  49  43  80 N18       30.12R
GRAND ISLAND   CLOUDY    46  39  76 N17       30.19R
KANSAS CITY    CLOUDY    55  50  83 NW12      30.03R
WICHITA        CLOUDY    55  42  61 N15       30.10S
OKLAHOMA CITY  MOSUNNY   65  46  50 N16       30.07F
DALLAS         MOSUNNY   73  48  41 N14       30.01F
AMARILLO       CLOUDY    44  36  73 N22G29    30.19R
DODGE CITY     CLOUDY    46  37  71 N15       30.19R
HAYS           CLOUDY    48  34  57 N18       30.16S
GOODLAND       CLOUDY    50  32  50 N21G36    30.19R
$$




USA.gov is the U.S. government's official web portal to all federal, state and local government web resources and services.